Probability
0 0 0 0 0 0 0 1 1 1 1 1 1 3 6 6 8 12 15 17 19 22 26 28 29 33 38 39 38 38 39 40 39 37 35 32 29 26 24 26 27 25 20 17
0 0 0 0 0 0 0 0 0 0 0 0 1 3 5 7 9 11 14 16 18 22 25 27 28 32 37 39 38 38 38 40 39 37 35 33 31 28 27 28 28 25 21 19
0 0 0 0 0 0 0 0 0 0 1 1 2 4 6 8 10 11 13 16 19 22 25 27 28 31 35 37 37 36 37 38 36 33 31 32 32 31 30 29 27 24 21 18
0 0 0 0 0 0 0 0 0 1 2 3 4 4 6 10 10 9 11 15 20 24 26 27 28 30 32 33 34 34 34 35 32 28 27 29 32 31 30 28 25 22 18 16
0 0 0 0 0 0 0 0 1 2 3 4 4 3 5 9 10 8 10 14 19 24 27 27 28 29 29 29 31 31 33 34 32 27 25 28 30 30 28 25 21 19 17 13
0 0 0 0 0 0 0 1 2 2 3 3 2 1 3 7 9 9 12 15 20 25 26 26 27 27 25 26 27 29 33 34 30 26 24 25 25 25 24 21 19 19 15 12
0 0 0 0 0 0 1 2 2 2 1 1 1 1 3 7 9 10 14 17 21 23 23 23 25 25 24 23 24 27 31 31 26 23 22 21 20 21 20 19 19 18 15 11
0 0 0 0 0 0 1 3 3 1 0 0 0 2 6 9 9 10 15 20 21 21 21 20 22 24 23 22 23 26 30 28 23 20 20 19 18 18 18 17 17 17 14 12
0 0 0 0 0 0 1 2 2 1 0 0 0 4 8 9 8 9 14 20 21 19 19 19 20 22 21 22 25 27 29 28 23 19 18 17 16 16 15 15 15 14 13 11
0 0 0 0 0 1 1 1 1 1 0 0 0 3 8 10 10 11 15 18 20 19 17 18 20 21 20 22 24 26 27 26 23 19 17 16 14 13 13 13 13 13 12 11
0 0 0 0 1 2 1 0 0 0 1 1 1 3 8 13 14 15 17 19 21 18 15 17 19 20 19 20 21 22 22 22 20 18 18 18 16 14 12 12 13 13 13 11
0 0 0 0 1 1 1 0 0 1 3 4 3 6 11 15 17 19 22 24 23 18 13 14 18 19 18 18 19 19 17 16 16 16 17 18 17 15 13 13 14 15 14 12
2 2 1 0 0 0 0 0 0 1 4 4 4 8 13 16 18 22 26 26 22 16 12 13 17 19 18 19 20 18 16 14 14 14 15 16 15 15 14 14 15 15 14 13
3 2 1 0 0 0 0 0 0 1 2 3 3 6 11 17 22 25 26 21 15 12 12 13 16 18 19 21 21 20 18 15 14 14 14 15 15 14 15 15 15 14 13 12
2 2 1 0 0 0 0 1 1 1 1 1 3 5 9 17 23 26 24 17 11 9 9 11 14 15 18 19 21 22 21 19 18 17 16 16 17 17 17 17 16 14 12 10
4 3 2 1 0 0 0 1 2 1 1 2 3 6 12 18 23 25 23 18 14 12 11 11 13 15 17 18 20 23 26 25 23 20 17 17 19 20 20 19 18 16 13 12
9 9 5 1 0 0 1 2 2 2 3 4 6 10 15 19 22 24 23 21 19 17 16 15 16 18 20 20 21 25 29 29 26 24 20 18 18 20 21 20 19 18 17 16
13 13 8 2 0 1 1 2 2 3 3 5 7 9 13 17 20 23 23 23 21 18 18 17 18 20 22 23 24 25 27 27 25 25 22 19 17 18 18 19 21 21 20 20
14 14 9 3 1 2 2 1 2 2 2 4 6 7 10 15 18 19 20 20 18 17 16 16 16 18 22 25 25 24 23 23 23 23 22 20 17 16 17 19 23 23 23 22
11 12 9 4 2 1 1 2 2 2 2 4 6 7 9 13 15 16 17 18 18 19 17 15 14 16 21 24 25 22 20 21 21 20 20 18 16 16 18 22 25 24 23 22
6 7 7 5 2 0 1 3 5 6 7 9 11 11 11 12 15 15 16 18 19 20 19 16 14 15 19 21 23 21 19 17 17 17 16 15 13 14 18 24 26 25 23 21
5 5 6 6 4 4 5 8 11 15 16 16 17 16 14 14 14 14 16 17 19 21 20 16 15 16 17 19 21 20 18 15 14 14 13 12 12 12 15 21 25 25 22 19
8 7 7 8 9 10 12 14 18 20 20 20 19 18 16 14 13 13 15 17 18 19 18 16 16 16 16 17 18 18 17 15 12 11 11 11 12 12 15 19 22 22 19 16
9 8 9 10 11 13 14 15 17 18 18 17 16 14 13 13 13 13 14 15 15 16 16 16 16 16 15 16 17 17 16 15 13 11 12 11 12 14 16 20 21 20 18 16
6 7 8 9 9 10 12 13 12 13 13 12 11 11 11 12 13 12 13 13 12 11 12 13 15 15 15 15 16 17 16 16 14 14 13 12 12 15 18 20 19 16 14 13
6 7 7 6 6 8 11 11 10 11 11 9 8 9 10 12 13 12 12 11 9 9 10 12 13 14 14 14 16 16 16 16 15 15 15 13 13 16 19 19 16 11 8 7
Wind_Speed
16 15 14 15 15 15 14 13 12 10 9 12 11 10 10 10 11 10 10 10 10 9 10 10 10 10 9 8 7 7 6 5 4 3 3 2 2 2 1 2 2 3 2 2
16 18 18 15 15 15 14 14 13 9 10 10 11 10 9 10 10 9 10 10 10 10 10 11 11 10 10 9 8 7 6 6 4 4 3 2 2 2 2 1 2 2 3 3
17 15 14 15 15 15 14 13 12 12 12 11 11 11 9 10 10 9 10 9 10 11 11 11 11 10 10 10 9 7 6 5 4 3 3 2 2 2 2 2 2 3 3 3
17 17 16 16 15 14 13 13 12 14 12 9 10 9 8 10 10 11 10 10 10 11 11 11 11 11 10 10 9 8 6 5 5 4 4 4 3 3 2 2 2 3 3 3
16 16 16 15 14 13 13 13 14 14 13 12 12 10 8 11 12 12 10 10 10 10 10 10 10 10 10 9 9 8 7 6 5 4 3 3 2 2 1 1 2 3 3 3
18 17 16 14 13 13 12 13 14 13 11 13 11 10 7 7 9 10 10 10 9 10 9 9 8 9 9 9 9 8 7 6 5 4 3 3 2 2 2 2 2 2 2 2
17 18 16 13 14 13 11 10 7 7 7 8 8 9 5 4 6 8 10 11 10 10 10 10 9 9 8 8 9 9 8 6 6 5 3 3 3 3 3 3 3 2 2 2
14 13 12 12 12 9 10 12 9 8 8 7 8 7 2 3 4 5 6 9 9 9 9 9 8 8 8 8 7 8 8 7 6 5 4 3 2 2 2 2 2 2 2 2
11 11 9 10 9 11 11 10 9 8 11 10 6 3 3 4 6 6 7 9 10 9 9 9 8 8 8 7 7 7 7 6 6 6 4 4 3 2 2 2 2 2 2 3
11 12 11 10 10 12 11 9 6 6 7 8 9 7 3 7 7 7 8 8 9 9 9 9 8 8 7 7 6 7 7 6 6 5 5 4 3 2 2 2 2 2 2 2
10 11 11 10 12 11 10 11 9 7 7 7 7 4 1 5 6 6 7 8 9 9 9 9 8 8 7 7 7 6 6 6 6 5 4 3 3 3 2 2 2 1 1 1
7 8 10 12 12 12 11 11 11 8 7 7 7 4 1 3 4 6 7 7 9 8 9 9 9 8 8 7 7 7 6 6 6 5 5 3 3 3 2 2 2 2 2 2
4 5 9 9 9 9 9 11 11 9 7 7 8 4 1 3 4 5 7 7 8 8 8 9 9 7 7 6 7 7 6 6 5 5 5 4 3 3 3 2 2 2 2 2
4 6 9 11 9 8 10 12 10 8 8 8 7 4 2 1 4 5 6 6 7 7 7 7 7 6 6 6 6 6 6 5 5 5 5 5 4 3 3 2 2 2 2 2
6 10 11 12 13 12 12 14 12 9 9 8 4 3 1 0 4 6 6 6 6 7 7 7 6 5 4 4 5 5 5 5 4 4 4 4 4 3 3 3 3 2 2 2
5 8 11 13 14 12 13 12 11 9 7 7 3 2 2 3 3 6 6 5 5 5 6 7 6 5 4 4 4 4 5 5 4 4 4 3 3 4 4 3 3 3 2 2
6 6 9 11 11 10 11 9 6 4 4 3 2 1 2 2 4 5 6 5 5 4 4 5 5 5 3 2 2 3 4 4 4 4 4 4 4 4 4 4 3 3 3 2
7 7 6 9 8 11 6 5 4 1 2 4 3 3 2 2 5 6 6 5 5 4 4 4 4 4 3 2 2 1 1 3 3 3 3 4 4 4 3 3 3 3 3 2
8 7 7 7 9 9 6 5 4 2 2 2 2 3 3 3 6 5 6 5 4 4 3 3 3 3 2 2 2 2 1 1 2 2 2 2 2 2 2 3 3 3 3 2
8 6 7 8 10 8 4 6 6 2 3 3 3 2 3 3 2 3 4 4 4 4 3 2 3 3 3 2 2 1 1 1 2 2 2 1 1 2 2 3 3 2 2 3
7 7 8 9 8 4 5 4 2 2 1 2 2 2 2 2 2 3 3 3 3 4 3 2 2 3 3 3 2 1 1 0 1 1 2 1 1 2 2 2 2 2 3 3
4 5 7 7 7 3 6 3 3 3 3 4 4 4 4 4 4 3 3 4 3 4 3 2 2 3 3 3 2 2 1 0 1 0 1 1 1 2 2 1 2 2 3 3
2 3 2 1 1 2 5 5 5 4 4 4 5 4 4 3 3 2 3 3 4 4 3 2 2 2 2 2 2 1 1 1 0 1 1 1 2 2 2 3 3 3 3 3
3 3 1 1 1 2 4 5 6 5 5 4 4 3 3 3 3 3 2 2 3 2 2 2 2 2 1 1 1 1 2 1 0 1 2 2 3 3 3 2 3 3 3 2
4 3 2 1 2 3 3 5 5 5 4 4 3 3 2 3 3 3 2 2 2 2 2 1 1 1 1 0 1 1 1 2 2 2 3 4 4 4 3 3 3 3 2 3
4 3 2 2 2 2 3 4 4 4 3 3 3 3 2 3 2 2 2 2 1 1 2 2 1 1 1 1 1 0 0 1 1 2 3 3 3 3 3 3 3 2 3 4
Wind_Direction
226 227 236 241 240 251 259 266 267 252 230 236 236 233 214 200 204 200 202 197 187 183 172 162 158 153 151 150 153 156 161 157 166 168 170 183 180 171 166 156 148 158 177 182
236 233 238 246 251 251 256 260 266 265 250 246 244 238 218 201 210 205 204 198 185 178 171 164 162 161 160 161 161 162 165 166 178 173 175 188 185 183 177 165 156 178 191 192
236 243 242 246 249 251 256 258 265 267 257 256 259 247 221 204 197 205 205 198 186 180 176 170 169 168 168 167 165 166 169 169 179 174 180 192 182 190 186 174 175 191 197 200
242 246 246 247 250 254 261 263 262 261 263 265 264 260 219 196 195 203 199 194 192 188 176 174 171 170 173 169 163 159 161 166 175 178 191 192 190 202 199 189 186 195 193 200
248 248 248 249 252 255 262 266 264 259 259 265 258 260 238 194 197 198 195 193 191 186 174 166 169 170 169 165 161 160 161 165 170 181 185 192 207 210 190 182 184 198 200 205
256 256 251 251 254 250 260 269 267 262 255 252 252 260 253 200 197 189 182 189 184 173 163 162 166 163 161 161 160 158 156 161 166 179 191 195 202 200 210 209 201 206 198 205
250 248 245 240 246 244 247 257 264 261 246 250 247 248 237 181 190 185 181 179 168 163 160 163 165 164 162 163 162 157 159 165 170 181 194 198 209 209 213 211 204 210 208 212
254 248 235 236 241 245 248 247 248 264 270 273 253 243 206 179 156 145 161 157 154 153 156 161 164 160 161 162 162 160 164 170 173 176 184 195 204 217 211 212 222 208 210 210
265 261 258 245 245 241 246 250 267 265 274 280 271 250 200 161 142 154 168 163 156 156 156 158 156 153 156 162 164 161 162 171 175 174 182 190 186 207 233 229 222 211 224 214
268 276 264 251 246 240 231 240 258 259 268 276 272 258 198 161 160 168 160 156 149 152 154 150 150 150 152 156 158 159 165 169 170 175 192 185 183 197 217 217 224 219 218 222
260 269 265 255 251 247 230 233 246 254 259 265 274 279 128 140 148 149 142 154 153 158 157 150 147 148 150 153 154 156 160 164 168 174 178 175 182 193 203 200 192 197 196 198
251 265 263 254 254 255 243 234 237 245 251 261 269 263 348 103 115 123 133 148 149 152 154 151 148 148 153 155 155 156 163 171 173 172 170 169 178 184 198 205 193 192 194 204
268 262 263 254 237 239 251 240 238 242 248 254 262 250 232 80 91 117 125 128 138 143 149 149 145 151 158 157 158 159 166 171 174 172 171 170 182 186 198 210 205 202 206 210
240 252 258 260 261 270 270 269 253 252 256 257 259 244 243 92 105 109 116 126 137 143 144 144 146 153 160 163 160 161 165 168 174 174 174 176 183 189 195 201 212 209 205 204
245 255 258 262 265 264 265 268 265 252 260 267 270 239 216 125 126 128 124 127 139 146 148 146 146 151 156 159 157 162 165 167 173 179 179 183 182 181 191 201 204 201 204 208
234 258 268 270 265 263 265 260 252 252 257 269 281 267 158 122 123 120 122 125 132 145 144 137 142 150 150 157 172 171 170 166 168 178 183 177 177 184 192 200 197 192 194 204
245 251 262 269 278 285 269 270 261 249 264 288 296 343 54 119 124 122 117 121 129 126 130 131 127 119 122 151 178 188 171 163 175 185 188 182 189 196 196 204 195 189 191 196
250 257 252 261 266 260 258 296 288 246 40 31 44 58 58 98 115 112 106 105 102 106 110 110 113 115 116 117 114 126 170 159 173 190 198 189 192 196 195 201 198 194 191 198
227 240 251 258 253 256 260 293 302 264 150 41 38 28 33 84 115 107 95 89 91 82 98 105 113 121 115 105 100 116 142 143 163 190 207 201 195 198 192 203 209 198 194 204
215 216 239 256 261 259 269 303 305 251 203 28 29 53 61 83 142 123 86 87 99 89 87 104 119 112 111 98 93 114 128 158 199 206 205 209 203 202 201 205 206 203 207 215
211 213 231 251 259 273 322 321 290 210 306 8 15 57 85 63 47 101 113 97 87 95 96 109 119 119 113 109 105 113 104 304 247 215 200 203 240 232 210 198 210 212 212 218
236 232 229 238 244 247 356 19 44 46 31 24 35 49 64 68 78 107 116 109 96 92 89 92 101 106 114 123 129 144 149 255 304 212 176 205 242 255 229 197 218 229 221 221
356 345 307 340 68 48 36 48 50 55 51 47 45 53 77 88 91 91 81 83 85 75 78 70 90 109 111 125 144 171 198 228 323 334 248 230 246 250 225 206 216 227 222 224
358 6 14 67 94 43 49 45 41 46 48 45 43 37 89 101 93 72 87 85 83 78 78 67 73 84 111 146 167 193 209 203 227 254 262 243 237 234 219 215 220 217 218 223
326 335 2 9 22 349 12 23 26 25 28 32 33 30 95 105 103 106 119 101 85 80 73 82 80 76 60 57 209 216 195 202 222 239 248 245 239 229 223 222 227 219 207 200
338 359 327 305 337 321 347 0 13 22 17 30 40 33 65 91 94 91 92 94 86 68 54 53 46 29 19 351 320 93 158 231 239 249 254 253 237 227 220 220 216 202 204 186